* Astronomy

Members Login
Username 
 
Password 
    Remember Me  
Post Info TOPIC: Tiangong 1 space station


L

Posts: 131433
Date:
Tiangong 1 space station
Permalink  
 


Video: Tiangong-1 and Shenzhou-8 conduct second docking

See more 

China 24 2011-11-07 2nd docking of Tiangong-1 & Shenzhou-8 on schedule



__________________


L

Posts: 131433
Date:
Permalink  
 

Second space docking to face light interference

The space module Tiangong-1 and spacecraft Shenzhou-8 will conduct rendezvous and docking experiments twice as scheduled and then Shenzhou-8 will return to the earth while Tiangong-1 will continue to move in its orbit, according to the Beijing Aerospace Control Centre. The second rendezvous and docking is scheduled around Nov. 14.
Read more 



__________________


L

Posts: 131433
Date:
Permalink  
 

Tiangong 1 capsule interior revealed



__________________


L

Posts: 131433
Date:
Permalink  
 

TIANGONG 1
1 37820U 11053A   11301.68057844  .00071479  00000-0  39612-3 0  1071
2 37820 042.7877 019.5532 0006696 255.2883 234.2508 15.78596945  4605

Period:       91.22 minutes
Inclination: 42.78°
Apogee:     339 km
Perigee:     330 km



__________________


L

Posts: 131433
Date:
Permalink  
 

TIANGONG 1
1 37820U 11053A   11278.19242971  .00057503  00000-0  36770-3 0   227
2 37820 042.7851 163.0320 0013194 075.1031 065.3910 15.75357273   895

Period:       91.42 minutes
Inclination: 42.78°
Apogee:     353 km
Perigee:     335 km

CZ-2F RB
1 37821U 11053B   11278.06370667  .01087305  86088-5  50730-3 0   195
2 37821 042.7823 162.3198 0073771 170.7033 189.5394 16.14066112   899

Period:       89.41 minutes
Inclination: 42.78°
Apogee:     299 km
Perigee:     191 km



__________________


L

Posts: 131433
Date:
Permalink  
 

Tiangong-1 completes 2nd orbit transfer

China's first space lab module Tiangong-1 completed its second orbital transfer Friday afternoon BJT with its apogee altitude rising from 200 kilometres to 362 kilometres.
Read more 



__________________


L

Posts: 131433
Date:
Permalink  
 

Tiangong-1 waits for docking with Shenzhen 8 CCTV News



__________________


L

Posts: 131433
Date:
Permalink  
 

Tiangong station staff made of young talent

On Sept. 29, the testing personnel of China's first space lab module Tiangong 1 wait for the countdown at Beijing Aerospace Flight Control Centre. This is a young team, with an average age of 32.4 years old.
Read more 



__________________


L

Posts: 131433
Date:
Permalink  
 

TIANGONG1
1 37820U 11053A   11273.24636762 -.00002686  84964-5  00000+0 0    56
2 37820 042.7842 193.1685 0110856 136.1320 354.7939 16.01201201   104

Period:       89.95 minutes
Inclination: 42.78°
Apogee:     345 km
Perigee:     199 km



__________________


L

Posts: 131433
Date:
Permalink  
 

LIFT OFF: China launches space module rocket Tiangong 1



__________________
«First  <  1 2 3 46  >  Last»  | Page of 6  sorted by
 
Quick Reply

Please log in to post quick replies.



Create your own FREE Forum
Report Abuse
Powered by ActiveBoard